STARLINK-34220, 64930

Orbit data source: Space-Track

STARLINK-34220, 64930 is a payload satellite owned by SpaceX/Seattle (US) in LEO that was launched on Sat, 26 Jul 2025 UTC via an FALCON 9 launch vehicle from the Air Force Eastern Test Range (AFETR). Payload-class satellites include a variety of spacecraft equipped with specific instruments for various scientific and technological missions. These include communications satellites like Starlink; space stations such as the ISS; scientific satellites like the Hubble; Earth observation satellites from companies like Planet Labs, Umbra, and HawkEye 360; GPS; miniature CubeSats for education and research; and military/defense satellites.

Loading next visibility...
Identifier
64930, 2025-157AC
Orbit
LEO
Country
Flag of USUS
Related business
Manufacturer
SpaceX/Seattle
Mission
Operational Commercial Communications
Bus & Motor
STARLINK V2MO, Unknown motor
Mass
575 kg wet, ~530 kg dry
Launch date (UTC)
2025-07-26 (10 months ago)
Launch vehicle
FALCON 9
Launch site
Air Force Eastern Test Range (AFETR)
Object type
Payload
Rocket body
Debris
Shape & HBR
Box + 2 Pan, 17.7 m
Radar Cross Section
36.964 m², Large (>1 m²)

Expand to show TLE details & history
Last TLE update: 15 hours ago

TLE from 15 hours ago
0 STARLINK-34220
1 64930U 25157AC  26145.26575166  .00017300  00000-0  56760-3 0  9996
2 64930  53.1591 349.5606 0000894  68.0649 292.0447 15.31720868 47746
Epoch: 2026-05-25T06:22Z
TLE epoch observation values (Epoch: 2026-05-25T06:22:40.943Z)
Latitude
-0.00005°
Longitude
11.03395°
Altitude
471.348 km
Speed
7.632 km/s
True Right ascension
23h 18m 14s
True Declination
0° 00' 00"
Sunlit
Object was in daylight at epoch
Visualization orbit readout
Latitude
Unknown
Longitude
Unknown
Altitude
Unknown
Speed
Unknown
Apparent Right ascension
Unknown
Apparent Declination
Unknown
Sunlit
N/A
Visualization observer readout
Local Sidereal Time
07:05:00
Azimuth
Unknown
Elevation
Unknown
Doppler factor
Unknown
Orbital elements
Apogee altitude
471.547 km
Perigee altitude
470.322 km
Semi-major axis
6,849.072 km
Eccentricity
0.00009
Inclination
53.1591°
RAAN
349.5606°
Arg. of periapsis
68.0649°
True anomaly
292.0352°
Mean anomaly
292.0447°
Eccentric anomaly
292.03995°
Mean motion
3.82909 °/min
Orbital period
94.02 mins
BSTAR
0.0005676
Loading maneuver chart data...
Computing Atmospheric mass density...
Loading historical data...
Loading historical data...
Loading historical data...
Loading historical data...
Loading historical data...
Loading historical data...
Loading historical data...

Documentation

Showing up to 5 results
|